Location: Kimberly
(42.5380°N, 114.3640°W)
Time: 04:25:30
(UTC-07:00)

OTV 5 (USA 277) - Visible Passes

Search period start: 24 November 2017 00:00
Search period end: 04 December 2017 00:00
Orbit: 404 x 417 km, 43.0° (Epoch: 07 September)

Date Brightness Start Highest point End Pass type
(mag) Time Alt. Az. Time Alt. Az. Time Alt. Az.
30 Nov ? 19:05:30 10° S 19:06:17 13° S 19:06:17 13° S visible
01 Dec ? 18:15:48 10° SSE 18:16:49 11° SE 18:17:49 10° SE visible
01 Dec ? 19:50:21 10° SW 19:50:35 11° SW 19:50:35 11° SW visible
02 Dec ? 18:59:33 10° SW 19:02:02 31° S 19:02:02 31° S visible
03 Dec ? 18:08:53 10° SSW 18:11:38 24° SSE 18:13:27 16° ESE visible
03 Dec ? 19:45:19 10° WSW 19:46:12 17° WSW 19:46:12 17° WSW visible
